Wind_Speed
17 14 17 19 20 21 8 8 9 5 14 10 11 11 11 16 14 14 14 14 12 10 14 11 8 6 8 8 9 11 12 15 16 14 14 12 12 12 13 13 15 14 16 18
14 20 20 19 19 19 9 16 13 9 8 9 11 12 14 18 17 15 15 14 14 9 12 12 8 5 7 8 8 10 12 14 14 12 11 10 9 9 11 13 16 14 17 15
17 19 21 18 16 19 13 18 14 8 8 11 12 15 15 17 18 17 14 12 13 14 10 11 10 7 6 6 7 9 11 11 12 11 10 11 8 9 14 15 17 17 18 17
16 13 12 12 16 13 19 15 15 15 7 11 14 12 20 18 19 19 18 16 16 14 12 13 13 9 6 6 6 7 9 9 10 12 11 11 12 13 13 15 16 15 17 17
15 14 8 13 18 19 17 14 13 14 12 18 13 8 4 19 19 19 18 16 16 15 12 11 15 12 9 6 5 6 7 8 8 11 12 13 13 13 13 13 13 13 15 15
17 9 14 17 16 17 14 8 14 11 13 17 12 13 7 15 16 18 18 17 15 16 17 16 16 12 9 6 5 6 6 7 7 10 11 12 11 12 14 14 13 13 13 13
17 13 13 14 10 11 15 13 10 11 12 13 10 9 7 12 5 15 17 17 19 15 16 13 12 12 8 5 4 5 5 6 7 9 10 12 11 11 11 13 13 14 14 15
16 16 20 12 18 14 19 16 14 5 13 10 22 5 8 12 8 12 16 18 15 15 16 14 14 10 9 6 4 4 6 6 7 9 10 11 12 11 10 11 12 11 14 14
14 17 23 19 19 19 19 16 21 12 13 10 12 9 7 10 11 11 18 17 17 16 15 13 13 9 8 7 4 5 6 6 7 9 9 9 8 8 10 10 11 11 14 15
8 11 18 18 17 19 13 10 11 10 15 12 5 10 9 11 12 14 18 18 17 15 15 13 13 9 8 7 6 5 6 5 6 8 8 8 7 7 9 11 12 14 14 15
12 9 12 13 15 17 12 15 9 11 4 12 11 5 5 11 12 16 18 18 17 16 15 13 13 11 8 6 8 6 5 4 5 7 6 5 7 7 9 11 12 14 14 15
19 7 8 17 16 11 10 18 16 9 11 6 5 6 2 7 13 15 18 18 17 15 14 13 14 12 9 6 6 6 4 3 5 6 4 4 5 6 8 9 11 12 13 15
16 7 12 9 8 8 11 11 12 7 5 14 13 3 6 6 12 14 17 17 16 15 14 12 12 10 8 7 6 6 3 3 3 4 4 4 5 5 8 9 11 11 13 14
12 13 16 10 16 16 16 17 9 8 8 13 2 7 10 9 12 13 16 16 16 14 13 12 10 9 8 7 7 5 4 2 3 4 2 4 5 4 5 7 9 12 13 16
8 14 13 10 3 2 6 10 10 8 14 9 14 11 9 7 12 14 16 16 16 14 13 11 9 10 9 8 6 5 4 3 1 2 2 2 3 2 4 8 9 9 10 14
12 11 12 7 5 6 8 7 7 8 7 8 6 9 6 9 11 14 16 16 16 14 13 11 9 10 9 8 6 7 5 4 2 1 1 2 1 2 4 5 7 10 11 13
14 7 9 12 7 9 10 7 7 8 6 9 9 10 9 9 12 14 15 15 15 14 13 11 10 10 9 7 7 7 7 5 3 1 4 1 2 2 3 6 8 10 12 14
12 12 10 4 8 8 5 7 5 8 10 6 2 2 5 8 8 11 13 14 13 13 12 11 11 11 10 8 7 8 7 6 5 4 3 2 1 3 5 7 9 10 12 14
10 10 2 4 6 4 4 5 6 10 13 12 6 6 6 8 9 9 10 12 12 12 12 12 12 12 11 9 8 8 8 7 5 4 3 2 2 3 4 6 9 9 11 12
7 5 6 5 4 6 3 11 2 7 11 13 9 10 10 10 8 9 13 13 12 14 14 14 14 13 10 7 6 7 7 6 6 4 3 4 3 4 5 6 8 10 11 11
10 9 8 5 7 2 4 5 4 8 3 7 8 11 12 9 6 15 17 15 16 15 15 15 15 13 11 8 7 5 4 4 4 4 4 5 6 6 7 7 9 11 11 11
10 8 8 10 8 8 9 9 14 2 1 5 8 10 12 10 11 14 15 14 16 16 17 16 15 13 11 8 6 3 2 0 3 3 4 6 8 10 9 7 10 11 12 10
5 3 3 10 4 5 10 7 7 4 6 6 8 10 12 11 12 14 14 14 16 16 16 16 15 14 11 8 3 3 5 1 3 3 3 7 10 9 9 10 11 11 11 9
6 3 2 3 10 10 10 5 6 3 6 7 9 12 13 12 14 14 14 13 15 17 15 14 14 15 10 6 5 2 3 1 3 2 3 6 8 8 8 8 9 8 9 11
4 6 3 2 4 6 7 9 7 6 7 10 11 14 12 15 15 14 14 14 16 16 15 12 11 11 12 6 6 4 2 2 2 3 5 4 4 4 8 7 7 10 6 7
9 7 5 1 8 5 9 9 9 9 10 11 13 13 13 14 14 14 13 17 17 16 14 12 9 10 9 7 6 6 2 2 3 3 3 1 2 5 6 7 4 6 9 6
Wind_Direction
201 206 206 196 229 252 317 263 290 149 120 195 245 202 192 182 213 200 193 198 164 179 147 150 128 111 96 79 64 47 34 23 16 12 7 4 3 9 5 8 19 14 360 348
188 219 208 207 220 246 260 279 268 80 110 243 246 230 194 189 208 214 200 201 154 165 160 149 136 131 101 85 66 48 36 24 18 14 11 3 4 9 8 13 8 19 11 4
212 217 233 217 218 230 239 246 255 243 146 241 263 256 203 202 192 216 204 194 161 171 158 160 156 170 118 87 63 50 36 26 23 8 17 10 10 13 12 9 8 5 4 2
231 224 234 204 229 223 243 229 257 273 201 269 186 298 186 192 194 206 203 198 154 156 164 161 163 144 132 112 80 55 37 32 30 26 30 25 15 16 19 5 10 8 5 9
221 244 221 238 233 230 244 268 274 237 225 263 224 250 204 174 195 204 209 202 152 154 155 156 159 152 154 137 92 60 49 41 38 40 35 26 23 17 13 7 5 5 1 5
244 187 233 226 240 234 248 230 249 236 238 236 265 221 154 169 200 198 199 202 148 168 155 162 143 152 157 137 108 70 62 53 45 44 44 37 21 12 6 6 1 2 356 358
217 225 237 233 235 219 220 207 211 220 237 253 223 214 102 135 161 183 185 173 158 165 150 154 161 166 149 110 70 87 67 67 53 52 42 29 15 8 2 357 358 346 355 353
217 208 222 180 229 204 205 200 256 236 265 150 241 248 103 121 132 153 171 151 152 170 152 165 167 153 131 103 73 80 98 71 63 49 39 32 20 15 7 359 353 353 352 354
217 237 184 201 220 213 197 234 244 303 289 275 279 80 124 133 144 163 152 144 166 173 155 149 141 143 117 112 97 104 89 81 55 53 40 30 23 16 360 1 359 359 356 357
258 225 181 190 215 233 262 231 239 232 270 286 308 240 93 170 163 168 145 163 164 154 151 148 151 135 126 117 124 104 95 79 60 52 36 27 14 15 359 4 12 10 5 2
231 239 176 179 214 219 209 244 232 285 242 264 310 69 76 161 166 162 158 163 161 161 156 157 144 144 130 132 117 120 102 85 60 57 27 21 14 6 2 9 16 14 12 12
214 242 214 203 203 255 271 237 247 248 259 316 278 316 69 110 148 162 164 162 159 165 155 157 146 144 150 123 121 118 103 85 61 73 46 27 14 9 358 10 14 6 7 5
192 224 236 157 198 207 245 232 263 276 315 281 289 81 144 127 132 162 165 156 160 159 159 155 146 146 138 129 134 126 122 84 61 65 51 36 20 357 357 12 6 3 8 5
201 227 234 221 226 202 209 238 229 241 259 284 131 185 139 138 145 163 156 155 162 163 162 152 148 143 146 134 143 145 135 110 93 84 59 27 11 357 357 12 13 9 8 13
195 233 232 247 307 225 186 213 227 237 260 284 321 346 95 138 159 169 158 164 162 169 170 152 155 148 150 151 153 152 159 150 129 83 50 1 343 8 11 18 6 6 11 7
200 239 231 192 186 183 210 220 241 275 300 278 290 288 97 127 155 167 166 173 171 175 167 155 156 153 160 159 170 167 172 178 172 91 302 261 348 21 12 6 350 16 7 3
192 214 220 205 196 228 233 238 251 273 259 284 309 75 124 150 173 177 174 180 177 173 166 159 159 162 159 161 168 173 186 180 209 173 261 294 33 1 3 341 349 353 349 351
201 214 222 158 181 216 48 355 306 269 277 267 228 159 146 157 176 180 175 178 174 169 165 157 161 159 158 160 171 171 182 196 216 201 259 238 272 323 330 346 348 340 341 344
197 206 161 213 227 342 311 273 240 241 256 232 238 147 153 139 154 176 174 169 171 163 159 157 162 158 158 163 169 177 185 197 220 221 257 277 299 309 341 350 340 330 328 333
184 251 205 158 200 238 254 298 231 260 258 241 185 167 153 156 199 182 171 160 156 156 153 154 152 152 154 149 166 185 196 198 209 248 240 280 272 292 323 343 331 317 324 330
176 189 192 197 251 225 150 221 165 230 339 85 151 161 156 182 36 111 143 150 149 155 152 152 152 156 150 144 156 179 197 206 218 235 275 281 294 293 303 323 324 329 319 332
180 163 236 225 207 220 162 172 221 116 134 135 147 152 156 113 126 131 140 143 148 153 150 158 159 153 148 153 168 116 62 292 226 213 278 290 291 302 315 312 324 324 329 345
208 177 335 346 85 319 153 65 106 134 148 150 146 146 153 144 145 142 143 147 152 154 159 160 161 148 152 155 178 146 136 267 224 227 286 299 298 295 304 304 331 329 341 333
167 148 233 242 142 154 149 132 153 148 130 138 137 150 141 148 147 149 147 154 154 159 162 163 159 158 153 161 179 213 89 191 247 187 280 287 285 300 315 308 312 337 338 345
117 157 177 320 128 136 160 164 150 144 138 131 141 141 154 151 152 153 153 155 161 160 158 158 167 157 152 182 182 160 174 228 209 218 262 271 296 321 306 292 337 334 351 339
169 214 205 101 136 95 122 141 146 149 141 144 144 152 149 157 153 156 153 157 158 159 152 156 145 143 174 180 139 175 188 182 203 223 303 274 253 255 259 289 327 277 267 274
Height
756 766 770 763 755 742 753 753 758 748 749 771 774 777 780 789 792 791 794 796 803 811 818 828 835 840 840 842 843 843 843 842 841 839 838 836 836 835 834 833 832 831 829 826
761 769 745 742 749 753 756 766 761 752 758 770 764 771 767 778 789 785 789 792 802 812 816 827 837 842 842 843 844 843 844 844 842 841 841 839 838 836 835 834 834 831 830 827
755 749 735 740 750 762 763 767 761 763 765 766 766 769 770 770 778 781 784 790 800 810 818 827 836 839 841 844 844 845 846 845 845 844 842 840 837 835 836 835 835 833 830 826
748 727 737 747 757 755 772 747 755 755 773 781 760 782 762 770 778 779 779 785 798 808 816 824 831 838 841 844 846 847 847 847 847 845 843 842 839 838 839 837 837 834 831 827
750 744 754 758 753 744 759 740 748 749 764 770 758 777 740 762 780 779 777 779 793 804 815 823 829 836 839 842 844 846 848 848 848 846 844 843 843 841 840 839 837 835 832 828
740 729 742 748 738 737 736 752 751 750 759 778 754 763 757 766 766 771 771 775 790 800 812 820 826 832 836 838 841 845 847 848 848 846 845 845 845 842 840 839 837 835 831 828
750 746 741 734 751 740 744 760 782 789 782 779 766 758 747 743 747 749 765 773 786 792 807 816 825 828 833 838 840 842 846 847 847 846 845 846 845 844 842 839 837 834 831 828
762 771 746 734 746 753 750 752 763 798 787 786 754 757 755 733 742 744 756 769 782 792 802 813 818 824 829 837 842 842 845 846 847 846 846 846 846 844 843 840 838 835 831 828
749 751 721 727 728 729 744 758 729 751 740 753 733 748 747 747 752 751 756 772 786 791 800 809 819 826 831 837 842 843 845 847 847 846 847 848 847 846 843 841 838 835 832 828
729 748 718 726 724 722 734 722 757 750 786 784 751 747 768 760 759 755 764 778 785 791 802 812 820 827 831 837 842 843 844 846 847 847 848 848 847 846 843 841 838 835 832 828
725 738 733 725 743 741 741 742 733 735 751 774 766 762 737 741 750 756 766 774 784 793 802 812 819 827 831 834 838 842 844 845 846 848 849 849 848 846 843 841 839 835 832 829
722 736 745 741 718 718 723 728 730 751 760 766 774 760 742 737 744 754 764 772 783 791 801 809 817 825 830 834 838 842 845 845 846 848 849 849 848 846 843 841 838 836 833 829
719 742 754 746 737 729 737 722 725 726 740 760 763 763 738 739 746 753 762 771 784 791 800 807 814 822 828 834 837 840 843 845 846 848 849 849 847 846 844 841 839 836 833 830
715 730 740 745 730 718 741 728 721 731 760 749 749 756 748 748 754 758 763 774 783 792 800 805 813 821 828 832 836 840 843 845 847 847 849 848 847 846 844 842 839 837 834 831
719 745 727 715 720 714 720 726 726 736 735 748 738 744 740 746 752 758 765 776 784 792 800 806 812 820 828 833 837 840 843 845 847 849 849 848 847 846 844 842 841 838 835 832
718 737 722 731 721 719 732 725 727 726 730 736 737 744 733 741 746 758 766 776 783 790 798 805 812 819 826 831 835 838 842 844 846 848 848 847 847 845 845 844 841 839 836 832
724 725 734 739 725 726 744 728 729 729 728 732 746 743 737 749 752 759 765 774 781 788 796 804 811 818 824 830 834 837 840 842 844 846 846 846 846 846 845 843 842 839 836 833
722 727 722 737 732 768 735 718 717 728 726 724 731 737 739 745 750 754 760 772 779 788 795 804 812 818 824 829 833 835 839 841 842 844 844 843 844 845 844 842 841 839 837 834
708 721 735 748 746 739 735 727 734 739 737 718 727 735 740 744 751 759 759 770 779 788 796 805 811 817 824 829 832 835 837 838 840 842 842 842 843 843 842 841 840 838 836 834
713 721 729 744 764 779 741 726 715 717 748 711 720 733 743 749 764 752 762 772 781 791 799 805 812 819 825 830 833 835 835 836 837 839 842 842 841 841 840 839 838 837 834 832
728 726 738 743 750 735 720 721 720 759 746 714 719 730 742 752 755 751 762 773 784 793 801 808 814 819 825 830 833 834 834 835 837 839 841 843 842 840 839 838 837 835 832 830
722 735 743 727 739 758 713 724 741 731 726 723 727 733 743 752 760 763 770 779 787 796 803 809 814 819 825 830 832 833 835 835 836 837 841 842 842 841 839 838 835 834 831 829
724 712 735 723 749 725 717 725 728 726 729 730 732 737 743 756 761 768 776 784 791 799 805 808 813 819 824 829 832 832 835 836 836 838 838 840 840 840 839 836 835 832 829 828
705 703 716 725 723 720 719 726 727 727 730 731 734 740 749 758 764 772 778 787 794 801 805 808 813 818 825 829 831 834 835 836 835 837 838 838 839 838 837 835 833 831 829 827
699 703 708 714 714 717 718 724 729 733 734 736 741 747 752 760 766 773 779 787 794 801 804 809 813 817 825 827 830 833 834 835 835 837 837 836 836 836 835 834 833 832 830 829
695 708 712 721 708 714 720 722 731 736 739 742 747 752 756 761 767 775 781 788 795 800 806 810 814 820 823 825 829 833 833 835 836 836 836 835 833 833 830 830 829 828 827 826